Location: Crab Orchard
(37.7292°N, 88.8042°W)
Time: 08:10:21
(UTC+00:00)

Meteor 1-11 Rocket - Pass Details

Date: 08 December 2019
Orbit: 831 x 916 km, 81.2° (Epoch: 28 January)

Event Time Altitude Azimuth Distance (km) Brightness Sun altitude
Rises 23:10:27 0° 355° (N) 3,559 6.8 -6.9°
Reaches altitude 10° 23:12:59 10° 359° (N) 2,615 6.0 -7.4°
Maximum altitude 23:18:53 59° 79° (ENE) 1,047 3.9 -8.4°
Drops below altitude 10° 23:24:42 10° 158° (SSE) 2,581 6.2 -9.5°
Sets 23:27:11 0° 162° (SSE) 3,510 7.0 -10.0°
